COSMOS 2497

Satellite information

Favourite Embed

Satellite Type and Status

PAYLOADIN ORBIT

Key statistics

Satellite COSMOS 2497 at a glance.

Uptime

4176

Days in orbit

Revolutions

≈ 12.4

Per day

Orbit

LEO

Low Earth Orbit

Inclination

82.4

Latest

Satellite identification and parameters

Extended collection of information and parameters for COSMOS 2497.

Object identification

Identified? True

Debris? False

Object name: COSMOS 2497

International designator: 2014-028B

Object number (NORAD): 39762

Object ID (CCSDS): 39762

Country: COMMONWEALTH OF INDEPENDENT STATES (CIS)

Current information (Y/N): Y

RCS size: LARGE

Orbital parameters

Period: 115.861 minutes

Inclination: 82.448 deg

SMA: 7872.604 km

Apoapsis: 1509.541 km

Periapsis: 1479.397 km

RAAN: 255.7759 deg

Eccentricy: 0.00191451

Argument of periapsis: 219.2873 deg

Mean anomaly: 140.6819 deg

Mean motion: 12.42868395 rev/day

Mean motion (dot): 0.00000046 rev/day2

B* drag term: 0.00025839364 1/REarth

Two-line elements (TLE)

Creation date: Oct. 28, 2025, 2:18 a.m.

Reference frame: TEME

Reference center: EARTH

Epoch: Oct. 27, 2025, 10:10 p.m. UTC

TLE line 0: 0 COSMOS 2497

TLE line 1: 1 39762U 14028B 25300.92389525 .00000046 00000-0 25839-3 0 9995

TLE line 2: 2 39762 82.4480 255.7759 0019145 219.2873 140.6819 12.42868395518660

Live tracking on map

Real-time ground track for satellite COSMOS 2497.

In-orbit conjunctions

There are no conjunctions computed for COSMOS 2497, at the moment. Check back to stay up to date, as we update our databases every day.

Go to all conjunctions

Associated space launch

Classified payload for Russia

COSMOS 2497 was lifted into orbit during the mission ‘Rokot / Briz-KM | 3x Strela-3M (Kosmos 2496, Kosmos 2497, Kosmos 2498) & Kosmos 2499’, on board a Rokot/Briz-KM space rocket.

The launch took place on May 23, 2014, 5:27 a.m. from 133/3 (133L).

For more information about the launch, click the button.

Launch to space Rokot / Briz-KM | 3x Strela-3M (Kosmos 2496, Kosmos 2497, Kosmos 2498) & Kosmos 2499
Rokot / Briz-KM | 3x Strela-3M (Kosmos 2496, Kosmos 2497, Kosmos 2498) & Kosmos 2499

Agency: N/A

Status: Launch Successful

Launch date: May 23, 2014, 5:27 a.m. UTC

Rocket: Rokot/Briz-KM

Launch pad: 133/3 (133L)

Location: Plesetsk Cosmodrome, Russian Federation

...

Latest news about this satellite

There are no fresh news available about this satellite. Check back as we update our databases every day.


Newsletter sign-up

Weekly statistics, charts and insights to help you stay on top of the space industry.